| time (UTC) | temp C | wind direction | speed KPH | gust KPH | rain 1hr cm | rain 24hr cm | rain mn cm | humidity % | barometer mb |
| 20260504234604 | 24 | 330 | 9.7 | 0.0 | 0.00 | 0.00 | 0.00 | 16 | 994.8 |
| 20260504233057 | 24 | 41 | 12.9 | 0.0 | 0.00 | 0.00 | 0.00 | 16 | 994.4 |
| 20260504231557 | 25 | 277 | 14.5 | 0.0 | 0.00 | 0.00 | 0.00 | 14 | 994.2 |
| 20260504230011 | 25 | 298 | 9.7 | 0.0 | 0.00 | 0.00 | 0.00 | 13 | 993.9 |
| 20260504224508 | 26 | 268 | 8.0 | 0.0 | 0.00 | 0.00 | 0.00 | 12 | 993.8 |
| 20260504223005 | 26 | 295 | 6.4 | 0.0 | 0.00 | 0.00 | 0.00 | 12 | 993.4 |
| 20260504221542 | 27 | 308 | 4.8 | 0.0 | 0.00 | 0.00 | 0.00 | 12 | 993.6 |
| 20260504220006 | 26 | 279 | 6.4 | 0.0 | 0.00 | 0.00 | 0.00 | 11 | 993.4 |
| 20260504214513 | 27 | 319 | 4.8 | 0.0 | 0.00 | 0.00 | 0.00 | 12 | 993.5 |
| 20260504213042 | 27 | 325 | 8.0 | 0.0 | 0.00 | 0.00 | 0.00 | 12 | 993.8 |
| 20260504211522 | 27 | 284 | 6.4 | 0.0 | 0.00 | 0.00 | 0.00 | 11 | 993.6 |
| 20260504210049 | 28 | 316 | 8.0 | 0.0 | 0.00 | 0.00 | 0.00 | 13 | 993.7 |
| 20260504204506 | 27 | 213 | 9.7 | 0.0 | 0.00 | 0.00 | 0.00 | 11 | 994.1 |
| 20260504203037 | 28 | 137 | 4.8 | 0.0 | 0.00 | 0.00 | 0.00 | 11 | 994.0 |
| 20260504201540 | 29 | 316 | 4.8 | 0.0 | 0.00 | 0.00 | 0.00 | 12 | 994.0 |
| 20260504200050 | 28 | 72 | 8.0 | 0.0 | 0.00 | 0.00 | 0.00 | 14 | 993.6 |
| 20260504194604 | 28 | 230 | 9.7 | 0.0 | 0.00 | 0.00 | 0.00 | 12 | 993.9 |
| 20260504193014 | 28 | 277 | 6.4 | 0.0 | 0.00 | 0.00 | 0.00 | 13 | 994.1 |
| 20260504191512 | 27 | 326 | 8.0 | 0.0 | 0.00 | 0.00 | 0.00 | 15 | 994.2 |
| 20260504190100 | 27 | 312 | 8.0 | 0.0 | 0.00 | 0.00 | 0.00 | 15 | 994.6 |
| 20260504184518 | 27 | 320 | 6.4 | 0.0 | 0.00 | 0.00 | 0.00 | 17 | 994.9 |
| 20260504183056 | 26 | 8 | 8.0 | 0.0 | 0.00 | 0.00 | 0.00 | 18 | 995.2 |
| 20260504183002 | 26 | 340 | 8.0 | 0.0 | 0.00 | 0.00 | 0.00 | 18 | 995.2 |
| 20260504181510 | 26 | 326 | 6.4 | 0.0 | 0.00 | 0.00 | 0.00 | 17 | 995.5 |
| 20260504180018 | 26 | 308 | 6.4 | 0.0 | 0.00 | 0.00 | 0.00 | 18 | 995.4 |
| 20260504174526 | 26 | 51 | 8.0 | 0.0 | 0.00 | 0.00 | 0.00 | 20 | 995.9 |
| 20260504173023 | 26 | 288 | 8.0 | 0.0 | 0.00 | 0.00 | 0.00 | 20 | 996.1 |
| 20260504171539 | 25 | 310 | 8.0 | 0.0 | 0.00 | 0.00 | 0.00 | 18 | 996.3 |
| 20260504140108 | 14 | 315 | 6.4 | 0.0 | 0.00 | 0.00 | 0.00 | 41 | 997.6 |
| 20260504081546 | 12 | 3 | 3.2 | 0.0 | 0.00 | 0.00 | 0.00 | 47 | 997.5 |
| 20260504050012 | 13 | 145 | 3.2 | 0.0 | 0.00 | 0.00 | 0.00 | 37 | 999.5 |
| 20260504044546 | 13 | 113 | 3.2 | 0.0 | 0.00 | 0.00 | 0.00 | 37 | 999.5 |
| 20260504043040 | 13 | 121 | 1.6 | 0.0 | 0.00 | 0.00 | 0.00 | 37 | 999.5 |
| 20260504041502 | 13 | 102 | 3.2 | 0.0 | 0.00 | 0.00 | 0.00 | 36 | 999.8 |
| 20260504040035 | 13 | 107 | 6.4 | 0.0 | 0.00 | 0.00 | 0.00 | 35 | 1000.2 |
| 20260504034551 | 14 | 87 | 4.8 | 0.0 | 0.00 | 0.00 | 0.00 | 35 | 1000.4 |
| 20260504033013 | 15 | 78 | 4.8 | 0.0 | 0.00 | 0.00 | 0.00 | 33 | 1000.3 |
| 20260504031524 | 15 | 46 | 4.8 | 0.0 | 0.00 | 0.00 | 0.00 | 30 | 1000.2 |
| 20260504030044 | 16 | 45 | 6.4 | 0.0 | 0.00 | 0.00 | 0.00 | 28 | 999.8 |
| 20260504024604 | 17 | 49 | 4.8 | 0.0 | 0.00 | 0.00 | 0.00 | 27 | 999.1 |
| 20260504023100 | 18 | 51 | 4.8 | 0.0 | 0.00 | 0.00 | 0.00 | 25 | 998.8 |
| 20260504023003 | 18 | 46 | 4.8 | 0.0 | 0.00 | 0.00 | 0.00 | 25 | 998.8 |
| 20260504021508 | 20 | 41 | 1.6 | 0.0 | 0.00 | 0.00 | 0.00 | 24 | 998.5 |
| 20260504020016 | 21 | 54 | 1.6 | 0.0 | 0.00 | 0.00 | 0.00 | 21 | 998.6 |
| 20260504014518 | 22 | 80 | 3.2 | 0.0 | 0.00 | 0.00 | 0.00 | 20 | 998.3 |
| 20260504013042 | 23 | 80 | 3.2 | 0.0 | 0.00 | 0.00 | 0.00 | 19 | 998.0 |
| 20260504011512 | 25 | 82 | 4.8 | 0.0 | 0.00 | 0.00 | 0.00 | 18 | 997.8 |
| 20260504010056 | 24 | 61 | 4.8 | 0.0 | 0.00 | 0.00 | 0.00 | 16 | 999.1 |
| 20260504004602 | 25 | 62 | 6.4 | 0.0 | 0.00 | 0.00 | 0.00 | 15 | 999.2 |
| 20260504003004 | 25 | 17 | 4.8 | 0.0 | 0.00 | 0.00 | 0.00 | 14 | 999.0 |
| 20260504001510 | 25 | 48 | 8.0 | 0.0 | 0.00 | 0.00 | 0.00 | 14 | 999.1 |
| 20260504000010 | 25 | 354 | 6.4 | 0.0 | 0.00 | 0.00 | 0.00 | 16 | 999.8 |